This demonstration page uses our WeatherBlox Daily Observations layout. Learn more.

Left ArrowRight Arrow

39.08367, -84.50855

Hourly Observations for June 11, 2020

Temp ( °F °C ) Dew Point ( °F °C ) Humidity (%) Winds ( mph kmh ) Pressure ( in mb ) Visibility ( mi km ) Precip ( " mm )
12:53 am 00:53 Cloudy 73 22.8 57 13.9 57 57 WSW 15 24 29.88 1012 10 16.0934 0 0
1:53 am 01:53 Cloudy 70 21.1 59 15 68 68 W 16 26 29.92 1013 10 16.0934 0 0
2:53 am 02:53 Cloudy 69 20.6 57 13.9 66 66 WNW 12 19 29.94 1014 10 16.0934 0 0
3:53 am 03:53 Cloudy 67 19.4 54 12.2 63 63 WNW 14 22 29.98 1015 10 16.0934 0 0
4:53 am 04:53 Mostly Clear 65 18.3 54 12.2 68 68 VRB 5 7 30.01 1016 10 16.0934 0 0
5:53 am 05:53 Clear 63 17.2 54 12.2 73 73 W 8 13 30.04 1017 10 16.0934 0 0
6:53 am 06:53 Sunny 62 16.7 55 12.8 78 78 SSW 5 7 30.06 1018 10 16.0934 0 0
7:53 am 07:53 Sunny 66 18.9 57 13.9 73 73 W 9 15 30.09 1019 10 16.0934 0 0
8:53 am 08:53 Sunny 69 20.6 57 13.9 66 66 W 8 13 30.11 1020 10 16.0934 0 0
9:53 am 09:53 Sunny 71 21.7 57 13.9 61 61 W 8 13 30.13 1020 10 16.0934 0 0
10:53 am 10:53 Mostly Sunny 74 23.3 56 13.3 54 54 WNW 3 6 30.14 1021 10 16.0934 0 0
11:53 am 11:53 Sunny 75 23.9 54 12.2 48 48 W 8 13 30.15 1021 10 16.0934 0 0
12:53 pm 12:53 Partly Cloudy 77 25 55 12.8 47 47 WNW 12 19 30.15 1021 10 16.0934 0 0
1:53 pm 13:53 Partly Cloudy 79 26.1 53 11.7 41 41 WNW 13 20 30.15 1021 10 16.0934 0 0
2:53 pm 14:53 Mostly Sunny 80 26.7 52 11.1 38 38 W 13 20 30.15 1021 10 16.0934 0 0
3:53 pm 15:53 Sunny 81 27.2 51 10.6 35 35 W 7 11 30.15 1021 10 16.0934 0 0
4:53 pm 16:53 Partly Cloudy 82 27.8 52 11.1 35 35 WNW 9 15 30.14 1021 10 16.0934 0 0
5:53 pm 17:53 Mostly Sunny 80 26.7 53 11.7 39 39 W 7 11 30.15 1021 10 16.0934 0 0
6:53 pm 18:53 Partly Cloudy 81 27.2 49 9.4 33 33 undefined N/A 30.15 1021 10 16.0934 0 0
7:53 pm 19:53 Sunny 79 26.1 44 6.7 29 29 WNW 8 13 30.16 1021 10 16.0934 0 0
8:53 pm 20:53 Sunny 76 24.4 42 5.6 30 30 NW 6 9 30.18 1022 10 16.0934 0 0
9:53 pm 21:53 Clear 65 18.3 52 11.1 63 63 Calm 30.19 1022 10 16.0934 0 0
10:53 pm 22:53 Clear 63 17.2 52 11.1 68 68 Calm 30.21 1023 10 16.0934 0 0
11:53 pm 23:53 Clear 61 16.1 53 11.7 75 75 Calm 30.21 1023 10 16.0934 0 0

Powered by AerisWeather